Temp
-15 -16 -16 -17 -17 -17 -16 -17 -17 -17 -17 -18 -18 -18 -18 -18 -19 -18 -19 -19 -19 -19 -19 -19 -19 -20 -20
-17 -17 -18 -17 -17 -17 -17 -17 -17 -18 -18 -18 -18 -18 -19 -19 -19 -19 -19 -19 -19 -20 -20 -20 -20 -20 -21
-18 -18 -17 -18 -17 -17 -17 -18 -18 -18 -18 -18 -19 -19 -19 -19 -19 -19 -19 -20 -20 -20 -20 -21 -21 -21 -22
-18 -18 -18 -18 -18 -18 -18 -18 -18 -19 -19 -19 -19 -19 -20 -19 -19 -20 -20 -20 -20 -21 -21 -21 -22 -23 -24
-18 -18 -18 -18 -18 -18 -18 -19 -19 -19 -19 -19 -19 -19 -19 -20 -20 -20 -21 -21 -21 -22 -22 -22 -24 -26 -27
-18 -18 -18 -18 -18 -19 -19 -19 -20 -19 -20 -20 -20 -20 -20 -21 -21 -21 -21 -22 -22 -22 -23 -25 -27 -27 -28
-19 -19 -18 -19 -19 -19 -20 -19 -20 -20 -20 -20 -20 -21 -21 -21 -22 -22 -22 -22 -23 -24 -26 -27 -28 -29 -29
-19 -19 -19 -19 -19 -20 -20 -20 -20 -20 -20 -21 -21 -22 -22 -22 -23 -23 -23 -24 -25 -27 -28 -28 -29 -29 -29
-19 -20 -20 -20 -19 -19 -20 -20 -20 -20 -20 -21 -21 -22 -23 -23 -23 -24 -26 -27 -28 -28 -29 -29 -29 -29 -29
-20 -20 -19 -19 -20 -20 -20 -20 -20 -21 -21 -22 -22 -22 -22 -23 -24 -25 -27 -28 -28 -29 -29 -29 -29 -29 -29
-20 -20 -20 -20 -20 -20 -20 -20 -21 -21 -22 -22 -22 -22 -23 -23 -25 -27 -28 -29 -29 -29 -30 -30 -29 -30 -29
-20 -20 -20 -20 -20 -20 -21 -21 -21 -22 -22 -22 -23 -23 -24 -25 -26 -28 -29 -30 -29 -29 -29 -29 -29 -30 -29
-20 -20 -20 -20 -21 -21 -21 -21 -22 -22 -22 -23 -24 -25 -26 -27 -27 -29 -29 -29 -29 -29 -29 -29 -29 -30 -30
-20 -20 -20 -21 -21 -21 -21 -22 -22 -23 -23 -24 -26 -27 -28 -29 -29 -29 -29 -29 -29 -29 -29 -30 -30 -30 -30
-20 -21 -21 -21 -21 -22 -22 -22 -23 -24 -25 -27 -28 -29 -29 -29 -29 -30 -30 -30 -29 -29 -30 -30 -29 -30 -30
-21 -21 -21 -21 -22 -22 -23 -23 -24 -24 -26 -28 -29 -29 -31 -31 -30 -29 -30 -30 -30 -30 -30 -30 -30 -30 -30
-21 -21 -22 -22 -22 -23 -23 -24 -24 -26 -28 -29 -29 -30 -30 -30 -31 -29 -30 -30 -30 -30 -30 -30 -30 -30 -30
Height
5682 5682 5682 5681 5679 5677 5675 5671 5667 5663 5660 5656 5651 5644 5638 5632 5626 5618 5611 5604 5597 5587 5578 5568 5557 5545 5533
5671 5671 5671 5670 5668 5665 5663 5660 5657 5652 5648 5643 5638 5632 5627 5619 5611 5603 5596 5588 5579 5569 5558 5546 5533 5520 5508
5662 5662 5661 5659 5656 5655 5653 5651 5646 5640 5636 5633 5626 5619 5613 5605 5597 5589 5579 5570 5559 5548 5536 5523 5511 5496 5481
5653 5653 5651 5650 5649 5646 5644 5640 5635 5631 5625 5621 5613 5605 5598 5591 5582 5571 5560 5551 5540 5527 5513 5499 5484 5468 5453
5646 5645 5643 5642 5640 5637 5632 5629 5625 5619 5611 5606 5599 5590 5581 5572 5562 5552 5541 5529 5516 5503 5489 5473 5457 5443 5431
5636 5635 5636 5634 5630 5627 5624 5620 5616 5610 5598 5591 5584 5572 5564 5555 5545 5533 5521 5508 5494 5478 5462 5447 5435 5425 5414
5628 5630 5628 5625 5623 5620 5615 5609 5603 5597 5589 5578 5570 5557 5547 5536 5524 5511 5498 5483 5468 5453 5440 5429 5420 5410 5401
5623 5622 5620 5618 5615 5609 5604 5597 5592 5586 5577 5566 5558 5543 5529 5517 5504 5489 5472 5459 5446 5436 5426 5416 5408 5399 5390
5615 5615 5613 5609 5605 5600 5594 5588 5580 5573 5563 5552 5543 5536 5516 5498 5480 5467 5452 5442 5431 5420 5412 5404 5397 5389 5380
5609 5608 5605 5600 5596 5590 5584 5577 5568 5559 5551 5539 5526 5515 5509 5490 5469 5453 5437 5425 5417 5409 5401 5394 5386 5378 5369
5602 5599 5595 5591 5586 5580 5573 5565 5555 5543 5533 5522 5507 5494 5482 5474 5458 5441 5425 5416 5410 5402 5393 5383 5375 5366 5359
5593 5590 5586 5582 5576 5570 5561 5551 5540 5529 5517 5504 5490 5476 5465 5455 5442 5430 5418 5407 5402 5395 5386 5376 5367 5358 5348
5585 5581 5577 5572 5564 5556 5546 5536 5527 5515 5501 5488 5474 5460 5444 5435 5429 5419 5412 5403 5394 5387 5378 5368 5361 5353 5347
5576 5572 5567 5560 5552 5544 5535 5523 5509 5494 5483 5473 5457 5444 5434 5422 5417 5410 5400 5393 5387 5379 5372 5361 5354 5348 5342
5567 5562 5557 5550 5543 5533 5522 5510 5499 5487 5470 5454 5443 5432 5422 5416 5410 5401 5394 5386 5378 5373 5367 5357 5349 5346 5339
5559 5554 5548 5540 5530 5520 5509 5498 5485 5473 5459 5447 5437 5426 5415 5405 5399 5397 5388 5381 5374 5368 5361 5355 5348 5343 5337
5551 5545 5537 5528 5518 5508 5496 5483 5468 5455 5445 5437 5428 5422 5416 5408 5397 5389 5387 5379 5372 5364 5358 5353 5347 5342 5338
Wind_Speed
52 51 48 49 51 52 51 50 49 47 47 49 49 48 49 50 54 58 63 67 70 73 77 80 84 87 91
40 43 43 47 42 43 46 41 43 45 45 46 47 49 51 55 60 64 68 72 74 77 81 85 88 91 96
33 37 36 35 37 38 38 40 40 43 45 46 48 52 57 61 64 69 72 73 78 81 84 88 93 97 97
31 30 31 31 33 37 37 39 40 42 45 47 53 57 60 64 67 70 74 77 82 85 90 95 97 92 84
27 28 29 31 34 36 38 39 41 44 51 54 58 62 66 68 70 73 78 82 86 91 95 95 87 76 68
22 24 31 34 35 35 37 38 42 49 54 57 62 66 67 70 73 78 82 87 92 96 90 80 71 65 57
23 28 30 30 33 35 38 43 46 49 55 61 62 66 69 73 78 83 88 92 94 86 74 67 62 53 53
24 25 27 29 31 37 41 45 49 54 58 62 64 68 73 77 83 88 92 89 79 70 64 55 49 49 51
21 24 26 31 36 41 44 49 55 58 61 64 65 67 74 81 87 89 80 72 67 62 51 48 47 47 48
21 24 30 35 39 44 49 53 57 61 62 64 70 74 76 81 86 81 69 66 57 49 47 48 48 47 47
22 29 35 39 43 47 52 56 60 63 65 70 76 81 85 87 76 67 60 51 46 45 45 47 47 46 45
27 32 37 42 45 50 55 59 62 66 71 77 82 86 87 84 68 56 43 44 42 42 42 42 44 43 40
30 35 39 43 49 53 58 62 66 71 76 82 85 85 79 68 56 42 37 38 41 41 37 41 40 34 32
34 38 42 46 51 56 60 66 72 79 83 85 80 72 60 56 44 38 41 41 39 36 37 40 36 31 31
37 40 44 49 54 59 64 69 75 80 80 73 64 56 52 43 38 41 41 39 36 35 34 34 31 27 28
39 43 47 53 58 63 69 75 80 82 72 59 50 45 38 42 43 39 37 32 34 33 33 28 27 26 22
42 47 51 56 61 67 73 79 81 71 56 47 46 34 32 35 37 38 29 28 30 33 32 25 22 22 13
Wind_Direction
277 278 282 283 279 280 285 290 288 291 294 296 298 299 300 301 302 303 304 304 304 304 303 301 299 298 303
273 278 278 279 282 285 284 287 292 294 296 297 299 299 299 303 304 304 305 305 305 304 304 304 305 305 306
273 276 279 281 282 282 288 291 293 297 297 297 301 303 304 306 306 307 306 306 307 307 306 307 308 308 307
273 275 278 280 286 289 289 293 296 297 297 302 305 306 306 306 307 308 309 308 308 309 310 311 311 308 304
271 272 276 286 289 290 297 299 299 303 306 308 307 307 310 310 310 310 310 310 312 313 314 313 308 306 306
273 284 282 287 294 297 297 299 304 310 312 310 311 312 312 311 311 311 313 314 316 317 314 310 311 310 308
278 278 285 291 296 299 304 309 311 312 312 313 314 312 312 313 314 316 317 319 319 316 314 312 311 311 310
277 286 293 297 303 309 311 312 312 313 313 313 315 315 315 317 318 320 321 320 316 314 312 313 313 313 311
290 296 301 308 311 312 314 314 313 314 315 314 315 316 319 322 323 323 319 316 315 315 316 316 315 315 314
297 301 308 311 313 314 314 314 316 316 316 316 317 318 321 323 322 321 316 316 316 317 317 316 316 318 316
303 310 313 313 314 316 317 318 318 319 319 319 320 321 322 323 322 318 315 313 316 318 319 319 318 319 319
312 314 315 316 317 320 321 322 321 320 320 320 322 322 322 322 321 319 315 316 318 319 321 318 321 323 321
316 316 316 318 321 324 323 322 321 320 321 322 322 322 322 321 322 318 316 316 320 323 325 322 326 327 330
315 317 319 320 322 322 321 322 322 322 323 322 322 321 320 321 323 323 324 325 325 327 331 326 331 332 336
318 319 319 320 320 322 323 322 322 323 323 323 322 321 322 322 326 328 329 330 328 334 334 329 332 340 342
319 317 318 321 323 324 323 323 324 324 324 323 323 324 326 327 328 331 335 335 328 332 337 338 336 345 353
316 319 321 324 324 323 324 326 326 326 327 327 326 325 326 329 329 336 343 332 332 335 339 344 345 349 4